Year,Month,Day,Hour,Minute,Value (Times are PST for temperature in C)
2016,11,15,09,21,8.20
2016,11,15,09,22,8.20
2016,11,15,09,23,8.30
2016,11,15,09,24,8.30
2016,11,15,09,25,8.30
2016,11,15,09,26,8.40
2016,11,15,09,27,8.40
2016,11,15,09,28,8.40
2016,11,15,09,29,8.40
2016,11,15,09,30,8.40
2016,11,15,09,31,8.50
2016,11,15,09,32,8.50
2016,11,15,09,33,8.50
2016,11,15,09,34,8.50
2016,11,15,09,35,8.50
2016,11,15,09,36,8.50
2016,11,15,09,37,8.40
2016,11,15,09,38,8.40
2016,11,15,09,39,8.40
2016,11,15,09,40,8.30
2016,11,15,09,41,8.30
2016,11,15,09,42,8.30
2016,11,15,09,43,8.40
2016,11,15,09,44,8.40
2016,11,15,09,45,8.40
2016,11,15,09,46,8.40
2016,11,15,09,47,8.40
2016,11,15,09,48,8.40
2016,11,15,09,49,8.40
2016,11,15,09,50,8.40
2016,11,15,09,51,8.40
2016,11,15,09,52,8.50
2016,11,15,09,53,8.50
2016,11,15,09,54,8.50
2016,11,15,09,55,8.50
2016,11,15,09,56,8.60
2016,11,15,09,57,8.60
2016,11,15,09,58,8.60
2016,11,15,09,59,8.60
2016,11,15,10,00,8.70
2016,11,15,10,01,8.70
2016,11,15,10,02,8.70
2016,11,15,10,03,8.80
2016,11,15,10,04,8.80
2016,11,15,10,05,8.80
2016,11,15,10,06,8.80
2016,11,15,10,07,8.90
2016,11,15,10,08,8.90
2016,11,15,10,09,8.90
2016,11,15,10,10,8.90
2016,11,15,10,11,8.90
2016,11,15,10,12,8.90
2016,11,15,10,13,8.90
2016,11,15,10,14,8.90
2016,11,15,10,15,8.90
2016,11,15,10,16,8.90
2016,11,15,10,17,8.90
2016,11,15,10,18,8.90
2016,11,15,10,19,9.00
2016,11,15,10,20,9.00
2016,11,15,10,21,9.00
2016,11,15,10,22,9.10
2016,11,15,10,23,9.10
2016,11,15,10,24,9.10
2016,11,15,10,25,9.10
2016,11,15,10,26,9.10
2016,11,15,10,27,9.20
2016,11,15,10,28,9.20
2016,11,15,10,29,9.30
2016,11,15,10,30,9.30
2016,11,15,10,31,9.30
2016,11,15,10,32,9.30
2016,11,15,10,33,9.40
2016,11,15,10,34,9.40
2016,11,15,10,35,9.40
2016,11,15,10,36,9.40
2016,11,15,10,37,9.50
2016,11,15,10,38,9.50
2016,11,15,10,39,9.50
2016,11,15,10,40,9.60
2016,11,15,10,41,9.60
2016,11,15,10,42,9.60
2016,11,15,10,43,9.60
2016,11,15,10,44,9.70
2016,11,15,10,45,9.70
2016,11,15,10,46,9.80
2016,11,15,10,47,9.70
2016,11,15,10,48,9.80
2016,11,15,10,49,9.70
2016,11,15,10,50,9.70
2016,11,15,10,51,9.70
2016,11,15,10,52,9.70
2016,11,15,10,53,9.70
2016,11,15,10,54,9.70
2016,11,15,10,55,9.70
2016,11,15,10,56,9.80
2016,11,15,10,57,9.80
2016,11,15,10,58,9.80
2016,11,15,10,59,9.80
2016,11,15,11,00,9.80
2016,11,15,11,01,9.80
2016,11,15,11,02,9.90
2016,11,15,11,03,9.90
2016,11,15,11,04,9.90
2016,11,15,11,05,9.90
2016,11,15,11,06,9.90
2016,11,15,11,07,10.00
2016,11,15,11,08,10.00
2016,11,15,11,09,10.00
2016,11,15,11,10,10.10
2016,11,15,11,11,10.10
2016,11,15,11,12,10.10
2016,11,15,11,13,10.10
2016,11,15,11,14,10.20
2016,11,15,11,15,10.20
2016,11,15,11,16,10.20
2016,11,15,11,17,10.20
2016,11,15,11,18,10.20
2016,11,15,11,19,10.20
2016,11,15,11,20,10.20
2016,11,15,11,21,10.20
2016,11,15,11,22,10.20
2016,11,15,11,23,10.20
2016,11,15,11,24,10.20
2016,11,15,11,25,10.30
2016,11,15,11,26,10.30
2016,11,15,11,27,10.30
2016,11,15,11,28,10.30
2016,11,15,11,29,10.40
2016,11,15,11,30,10.50
2016,11,15,11,31,10.50
2016,11,15,11,32,10.60
2016,11,15,11,33,10.60
2016,11,15,11,34,10.70
2016,11,15,11,35,10.60
2016,11,15,11,36,10.60
2016,11,15,11,37,10.60
2016,11,15,11,38,10.60
2016,11,15,11,39,10.60
2016,11,15,11,40,10.50
2016,11,15,11,41,10.50
2016,11,15,11,42,10.40
2016,11,15,11,43,10.40
2016,11,15,11,44,10.40
2016,11,15,11,45,10.40
2016,11,15,11,46,10.40
2016,11,15,11,47,10.40
2016,11,15,11,48,10.30
2016,11,15,11,49,10.30
2016,11,15,11,50,10.30
2016,11,15,11,51,10.30
2016,11,15,11,52,10.30
2016,11,15,11,53,10.30
2016,11,15,11,54,10.30
2016,11,15,11,55,10.30
2016,11,15,11,56,10.30
2016,11,15,11,57,10.30
2016,11,15,11,58,10.30
2016,11,15,11,59,10.30
2016,11,15,12,00,10.30
2016,11,15,12,01,10.30
2016,11,15,12,02,10.30
2016,11,15,12,03,10.30
2016,11,15,12,04,10.30
2016,11,15,12,05,10.30
2016,11,15,12,06,10.30
2016,11,15,12,07,10.30
2016,11,15,12,08,10.30
2016,11,15,12,09,10.20
2016,11,15,12,10,10.20
2016,11,15,12,11,10.10
2016,11,15,12,12,10.10
2016,11,15,12,13,10.10
2016,11,15,12,14,10.00
2016,11,15,12,15,10.00
2016,11,15,12,16,10.00
2016,11,15,12,17,9.90
2016,11,15,12,18,9.90
2016,11,15,12,19,9.80
2016,11,15,12,20,9.80
2016,11,15,12,21,9.80
2016,11,15,12,22,9.80
2016,11,15,12,23,9.80
2016,11,15,12,24,9.80
2016,11,15,12,25,9.80
2016,11,15,12,26,9.70
2016,11,15,12,27,9.70
2016,11,15,12,28,9.70
2016,11,15,12,29,9.70
2016,11,15,12,30,9.70
2016,11,15,12,31,9.70
2016,11,15,12,32,9.70
2016,11,15,12,33,9.70
2016,11,15,12,34,9.70
2016,11,15,12,35,9.60
2016,11,15,12,36,9.70
2016,11,15,12,37,9.70
2016,11,15,12,38,9.60
2016,11,15,12,39,9.70
2016,11,15,12,40,9.60
2016,11,15,12,41,9.70
2016,11,15,12,42,9.70
2016,11,15,12,43,9.70
2016,11,15,12,44,9.70
2016,11,15,12,45,9.70
2016,11,15,12,46,9.60
2016,11,15,12,47,9.60
2016,11,15,12,48,9.60
2016,11,15,12,49,9.60
2016,11,15,12,50,9.60
2016,11,15,12,51,9.60
2016,11,15,12,52,9.70
2016,11,15,12,53,9.70
2016,11,15,12,54,9.70
2016,11,15,12,55,9.70
2016,11,15,12,56,9.70
2016,11,15,12,57,9.80
2016,11,15,12,58,9.80
2016,11,15,12,59,9.80
2016,11,15,13,00,9.80
2016,11,15,13,01,9.80
2016,11,15,13,02,9.80
2016,11,15,13,03,9.90
2016,11,15,13,04,9.90
2016,11,15,13,05,9.90
2016,11,15,13,06,9.90
2016,11,15,13,07,9.90
2016,11,15,13,08,9.90
2016,11,15,13,09,9.90
2016,11,15,13,10,9.90
2016,11,15,13,11,9.90
2016,11,15,13,12,9.90
2016,11,15,13,13,9.90
2016,11,15,13,14,9.90
2016,11,15,13,15,9.90
2016,11,15,13,16,9.90
2016,11,15,13,17,9.90
2016,11,15,13,18,10.00
2016,11,15,13,19,10.00
2016,11,15,13,20,10.00
2016,11,15,13,21,10.00
2016,11,15,13,22,10.00
2016,11,15,13,23,10.00
2016,11,15,13,24,10.00
2016,11,15,13,25,10.00
2016,11,15,13,26,10.00
2016,11,15,13,27,10.00
2016,11,15,13,28,10.00
2016,11,15,13,29,10.00
2016,11,15,13,30,10.00
2016,11,15,13,31,10.10
2016,11,15,13,32,10.10
2016,11,15,13,33,10.10
2016,11,15,13,34,10.00
2016,11,15,13,35,10.10
2016,11,15,13,36,10.00
2016,11,15,13,37,10.00
2016,11,15,13,38,10.00
2016,11,15,13,39,10.00
2016,11,15,13,40,10.10
2016,11,15,13,41,10.10
2016,11,15,13,42,10.10
2016,11,15,13,43,10.10
2016,11,15,13,44,10.10
2016,11,15,13,45,10.10
2016,11,15,13,46,10.10
2016,11,15,13,47,10.10
2016,11,15,13,48,10.00
2016,11,15,13,49,10.00
2016,11,15,13,50,10.00
2016,11,15,13,51,10.00
2016,11,15,13,52,10.00
2016,11,15,13,53,10.00
2016,11,15,13,54,10.00
2016,11,15,13,55,10.00
2016,11,15,13,56,10.00
2016,11,15,13,57,10.00
2016,11,15,13,58,10.00
2016,11,15,13,59,10.00
2016,11,15,14,00,10.00
2016,11,15,14,01,10.00
2016,11,15,14,02,10.00
2016,11,15,14,03,10.00
2016,11,15,14,04,10.00
2016,11,15,14,05,10.00
2016,11,15,14,06,10.00
2016,11,15,14,07,10.00
2016,11,15,14,08,10.00
2016,11,15,14,09,10.00
2016,11,15,14,10,9.90
2016,11,15,14,11,9.90
2016,11,15,14,12,9.90
2016,11,15,14,13,9.90
2016,11,15,14,14,9.90
2016,11,15,14,15,9.90
2016,11,15,14,16,9.90
2016,11,15,14,17,9.80
2016,11,15,14,18,9.80
2016,11,15,14,19,9.80
2016,11,15,14,20,9.80
2016,11,15,14,21,9.80
2016,11,15,14,22,9.80
2016,11,15,14,23,9.70
2016,11,15,14,24,9.70
2016,11,15,14,25,9.70
2016,11,15,14,26,9.70
2016,11,15,14,27,9.60
2016,11,15,14,28,9.60
2016,11,15,14,29,9.60
2016,11,15,14,30,9.60
2016,11,15,14,31,9.60
2016,11,15,14,32,9.60
2016,11,15,14,33,9.60
2016,11,15,14,34,9.60
2016,11,15,14,35,9.60
2016,11,15,14,36,9.60
2016,11,15,14,37,9.60
2016,11,15,14,38,9.60
